Date,TemperatureHighF,TemperatureAvgF,TemperatureLowF,DewpointHighF,DewpointAvgF,DewpointLowF,HumidityHigh,HumidityAvg,HumidityLow,PressureMaxIn,PressureMinIn,WindSpeedMaxMPH,WindSpeedAvgMPH,GustSpeedMaxMPH,PrecipitationSumIn
2013-2-1,34,30,27,26,20,15,94,69,48,30.21,30.02,0,-999,0,0.00
2013-2-2,29,23,13,17,15,10,87,71,60,30.29,30.21,0,-999,0,0.00
2013-2-3,25,19,15,15,13,11,87,76,63,30.23,30.01,0,-999,0,0.00
2013-2-4,35,24,12,19,15,9,91,69,45,30.03,29.96,0,-999,0,0.00
2013-2-5,40,32,26,23,17,11,85,54,35,30.01,29.84,0,-999,0,0.00
2013-2-6,33,28,19,17,13,8,65,54,43,30.05,29.83,0,-999,0,0.00
2013-2-7,25,17,7,10,6,3,87,65,45,30.06,29.88,0,-999,0,0.00
2013-2-8,27,19,12,20,8,4,90,64,43,29.88,29.67,0,-999,0,0.00
2013-2-9,32,27,22,19,11,8,88,52,37,29.70,29.63,0,-999,0,0.00
2013-2-10,23,19,10,19,4,-11,90,56,23,29.92,29.70,0,-999,0,0.00
2013-2-11,12,5,-6,-2,-6,-12,80,60,47,30.02,29.91,0,-999,0,0.00
2013-2-12,19,10,1,15,4,-5,90,77,58,30.09,30.01,0,-999,0,0.00
2013-2-13,31,24,17,22,18,14,90,77,60,30.06,29.99,0,-999,0,0.00
2013-2-14,30,26,24,23,12,7,94,57,40,30.15,29.99,0,-999,0,0.00
2013-2-15,34,27,22,14,11,9,70,51,37,30.26,30.15,0,-999,0,0.00
2013-2-16,37,27,20,18,16,13,82,64,44,30.24,29.88,0,-999,0,0.00
2013-2-17,29,24,17,25,13,6,95,61,46,29.89,29.72,0,-999,0,0.00
2013-2-18,27,18,14,12,8,3,85,66,38,29.94,29.88,0,-999,0,0.00
2013-2-19,28,15,3,15,6,-1,87,67,46,29.88,29.65,0,-999,0,0.00
2013-2-20,29,20,9,20,10,5,87,67,48,29.67,29.60,0,-999,0,0.00
2013-2-21,27,21,16,20,11,1,92,69,41,29.83,29.67,0,-999,0,0.00
2013-2-22,25,17,9,16,10,5,89,76,46,29.89,29.80,0,-999,0,0.00
2013-2-23,26,20,15,21,16,7,91,82,57,29.80,29.60,0,-999,0,0.00
2013-2-24,26,16,8,9,4,-1,77,60,40,30.02,29.79,0,-999,0,0.00
2013-2-25,23,12,0,14,4,-4,86,71,53,30.03,29.82,0,-999,0,0.00
2013-2-26,23,16,9,14,6,0,87,67,41,30.09,29.83,0,-999,0,0.00
2013-2-27,25,12,2,8,3,-2,84,67,47,30.16,30.09,0,-999,0,0.00
2013-2-28,24,15,4,21,10,0,91,82,67,30.23,30.15,0,-999,0,0.00